Location: Newark
(52.4787°S, 179.0532°W)
Time: 10:05:07
(UTC+00:00)

Vanguard 1 - Pass Details

Date: 26 November 2019
Orbit: 651 x 3832 km, 34.3° (Epoch: 14 December)

Event Time Altitude Azimuth Distance (km) Brightness Sun altitude
Rises 08:43:44 0° 321° (NW) 4,471 13.4 -6.9°
Reaches altitude 10° 08:46:44 10° 332° (NNW) 3,859 12.9 -7.2°
Maximum altitude 08:55:32 30° 27° (NNE) 3,534 12.3 -8.0°
Drops below altitude 10° 09:09:17 10° 78° (ENE) 6,134 13.7 -9.3°
Sets 09:15:46 0° 86° (E) 7,564 14.2 -9.9°
